Flag for U.S.A. Weather past 2 weeks in Pomona, California, U.S.A.

Now
70 °F

Sunny.


Feels Like: 77 °F
Forecast: 48 / 74 °F
Wind: No wind

Location: Chino Airport

Current Time: Dec 22, 2014 at 1:01:01 PM

Latest Report: Dec 22, 2014 at 11:53 AM


Visibility: 10 mi

Pressure: 30.01 "Hg

Humidity: 49%

Dew point: 50 °F

Location of PomonaLocation

Historic Weather in Pomona — Graph

°F

Pomona temperature yesterday

Maximum temperature yesterday: 66 °F (at 1:53 PM)
Minimum temperature yesterday: 41 °F (at 6:53 AM)
Average temperature yesterday: 53 °F

Past Weeks' High & Low Weather Summary

 TemperatureHumidityPressure
High79 °F (Dec 8, 2:53 PM)100% (Dec 13, 6:02 AM)30.26 "Hg (Dec 13, 6:02 AM)
Low41 °F (Dec 14, 3:02 AM)27% (Dec 10, 12:53 PM)29.84 "Hg (Dec 12, 3:53 AM)
Average55 °F78%30.07 "Hg
* Reported Dec 7 11:53 AM — Dec 22 11:53 AM, Pomona, Weather by CustomWeather, © 2014

Note: Actual official high and low records may vary slightly from our data, if they occured in-between our weather recording intervals... More about our weather records

Advertising

Pomona weather history for previous 24 hours

 ConditionsComfort  
Time TempWeatherWind HumidityBarometerVisibility
11:53 AM
Dec 22
70 °FSunny.No wind49%30.01 "Hg10 mi
10:53 AM66 °FSunny.3 mph54%30.04 "Hg6 mi
9:53 AM59 °FSunny.3 mph72%30.07 "Hg5 mi
8:53 AM50 °FFog.No wind93%30.07 "Hg5 mi
7:53 AM47 °FSunny.6 mph97%30.06 "Hg10 mi
6:53 AM42 °FPassing clouds.3 mph100%30.05 "Hg10 mi
5:53 AM43 °FFog.No wind97%30.04 "Hg0 mi
4:53 AM43 °FFog.No wind97%30.05 "Hg0 mi
4:00 AM45 °FFog.No wind97%30.05 "Hg1 mi
2:53 AM46 °FFog.3 mph96%30.04 "Hg1 mi
1:53 AM48 °FFog.No wind93%30.05 "Hg1 mi
12:53 AM48 °FFog.No wind93%30.05 "Hg2 mi
11:53 PM
Dec 21
52 °FFog.3 mph89%30.05 "Hg3 mi
11:04 PM50 °FFog.No wind96%30.08 "Hg2 mi
10:53 PM46 °FFog.3 mph96%30.07 "Hg1 mi
9:53 PM53 °FFog.No wind89%30.07 "Hg2 mi
8:53 PM52 °FFog.5 mph89%30.07 "Hg2 mi
7:53 PM54 °FFog.No wind90%30.06 "Hg5 mi
6:53 PM58 °FPassing clouds.3 mph78%30.07 "Hg5 mi
5:53 PM58 °FPassing clouds.No wind78%30.05 "Hg5 mi
4:53 PM62 °FPassing clouds.No wind65%30.06 "Hg6 mi
3:53 PM64 °FPartly sunny.No wind65%30.05 "Hg7 mi
2:53 PM66 °FPartly sunny.No wind59%30.05 "Hg7 mi
1:53 PM66 °FPartly sunny.No wind54%30.06 "Hg7 mi
Weather by CustomWeather, © 2014

See weather overviewHow to use our weather pages